Location: Lourdes
(43.1000°N, 0.0500°W)
Time: 06:07:30
(UTC+00:00)

H-2A R/B - Pass Details

Date: 30 November 2020
Orbit: 578 x 654 km, 98.5° (Epoch: 27 January)

Event Time Altitude Azimuth Distance (km) Brightness Sun altitude
Rises 17:36:30 0° 8° (N) 2,844 5.2 -12.5°
Reaches altitude 10° 17:38:42 10° 3° (N) 1,948 4.4 -12.9°
Maximum altitude 17:42:46 49° 289° (WNW) 788 3.0 -13.6°
Drops below altitude 10° 17:46:55 10° 214° (SW) 1,978 5.4 -14.3°
Sets 17:49:10 0° 209° (SSW) 2,893 6.2 -14.7°
